Wind_Speed
36 36 37 38 38 39 40 41 42 42 43 42 42 43 43 44 44 44 45 45 46 45 44 45 45 44 44 44 44 43 42 41 41 41 41 40 40 40 40 39 39 39 40
34 35 36 37 37 37 39 40 41 42 42 42 42 42 43 43 43 44 44 44 45 44 45 46 45 45 44 44 43 43 42 42 41 41 42 41 41 42 41 41 41 41 41
32 32 33 34 34 34 35 37 37 38 39 40 40 41 42 42 42 44 44 44 45 44 44 45 45 45 45 44 44 43 43 42 42 42 42 42 41 41 41 41 42 43 42
29 30 30 30 31 32 33 35 36 36 37 38 39 40 41 41 41 43 43 44 44 43 43 43 43 43 43 43 43 43 43 43 43 43 43 44 43 43 42 42 42 41 41
27 27 28 29 30 31 32 33 34 35 36 37 37 38 39 39 40 41 42 42 42 42 41 41 41 41 41 42 43 44 44 45 45 44 44 44 43 44 43 42 42 43 42
25 26 27 28 29 30 31 32 33 34 34 35 35 36 36 37 37 38 40 41 41 40 39 39 39 39 39 40 41 42 43 44 44 45 44 44 43 43 42 42 42 42 41
24 25 26 27 28 29 30 31 32 32 33 33 34 35 35 35 35 36 37 38 38 38 38 38 39 38 38 38 39 40 41 42 42 43 43 43 43 42 42 42 41 41 40
19 21 23 24 26 28 29 30 30 30 31 31 32 33 34 34 34 34 35 35 36 36 37 37 37 38 38 38 38 40 39 39 39 39 41 42 42 42 42 41 41 42 42
17 19 21 22 24 26 27 28 28 28 28 28 29 30 31 31 32 33 33 33 33 33 34 34 36 36 37 38 38 38 38 37 36 37 38 39 40 39 40 41 42 42 42
16 18 19 20 21 23 24 25 25 25 26 26 27 28 28 29 30 31 31 31 32 31 31 31 32 33 34 35 36 36 36 36 36 36 37 37 38 39 39 40 41 41 42
15 15 16 16 17 18 20 21 22 22 23 24 25 26 27 28 28 28 28 28 29 28 28 28 29 30 31 32 32 32 34 35 35 34 35 36 37 38 38 39 39 41 43
12 13 13 13 13 14 15 17 19 20 20 21 21 21 23 23 24 25 25 25 25 26 27 27 27 28 28 29 30 31 31 31 32 34 34 35 36 37 38 39 40 42 44
11 12 12 13 13 13 13 13 15 16 17 18 18 18 19 20 21 22 22 23 23 24 25 26 26 26 27 28 28 29 30 31 33 33 34 34 35 37 38 39 41 42 43
10 10 10 11 11 11 12 12 12 14 15 15 16 16 17 17 18 19 21 21 22 22 23 24 25 26 26 27 28 28 30 31 32 33 33 34 35 37 39 41 42 42 43
10 9 8 9 10 11 11 12 12 12 13 14 14 14 15 16 16 17 19 19 20 21 21 23 24 25 25 26 28 29 30 31 31 31 32 33 35 37 39 40 42 42 43
9 9 9 9 9 10 10 11 11 11 12 13 14 15 15 15 15 16 17 18 18 18 19 21 21 22 23 24 25 26 28 28 29 30 31 32 34 35 37 39 40 41 42
10 9 9 10 9 10 10 11 11 11 12 13 14 15 15 15 15 15 16 17 17 17 18 18 17 18 19 21 22 23 25 26 27 28 29 31 32 34 35 36 38 39 40
11 10 10 10 10 11 11 12 13 13 13 14 15 16 17 16 16 16 16 17 17 18 19 19 19 19 20 22 23 24 26 27 28 29 30 32 33 35 36 37 37 37 38
11 11 11 11 11 11 12 13 14 15 16 15 16 16 17 17 16 16 17 17 18 18 19 19 20 21 22 23 25 26 27 29 29 30 31 33 34 35 36 37 37 37 38
13 13 13 14 13 14 14 14 14 15 16 16 16 17 17 18 18 18 18 19 19 19 19 20 21 22 23 25 26 27 28 29 30 31 32 34 35 36 37 37 37 37 37
15 15 15 15 15 15 15 16 16 17 17 18 18 18 18 19 19 20 20 20 20 20 21 22 23 23 24 25 26 27 28 29 30 31 33 34 35 36 37 37 37 38 37
18 17 17 17 17 17 17 18 18 19 19 20 20 20 20 21 21 21 22 22 21 22 23 23 24 25 26 27 27 28 29 30 31 33 34 35 36 37 37 36 37 38 37
21 20 19 19 19 19 19 20 21 21 21 21 21 20 20 21 22 22 23 23 23 24 24 24 25 26 27 28 28 29 30 31 33 34 35 36 37 37 37 37 37 38 37
23 23 22 22 21 21 21 21 22 22 22 22 23 23 22 23 24 25 25 25 25 25 26 27 28 28 29 29 30 31 32 33 34 35 36 37 37 37 37 37 37 36 36
24 24 24 24 24 23 23 22 23 23 23 24 24 25 25 25 25 25 25 26 26 27 27 28 29 29 30 31 32 33 34 34 35 36 36 37 37 38 38 37 36 35 35
25 25 26 26 26 26 25 24 24 24 25 25 26 27 27 27 27 28 28 29 29 29 30 30 30 31 32 33 34 35 35 36 36 37 37 37 37 37 37 36 35 35 35
Wind_Direction
250 251 249 248 248 248 248 249 249 249 249 250 251 250 250 250 250 250 250 250 251 252 253 255 256 257 257 258 259 261 262 264 266 268 268 268 270 271 272 273 274 275 275
252 251 250 249 249 249 249 249 249 249 250 250 251 250 250 249 249 248 248 249 249 252 254 255 255 256 257 258 259 260 261 263 265 267 268 268 269 270 271 273 275 275 275
253 253 252 250 250 249 248 247 248 249 250 251 251 250 250 250 251 248 248 248 249 251 253 255 254 254 256 256 257 259 260 261 263 266 268 268 268 269 272 273 275 274 274
253 252 251 251 250 249 248 247 247 249 250 251 252 251 249 250 250 248 246 248 250 253 254 254 253 254 255 256 256 258 259 261 263 264 267 267 268 270 271 272 274 275 276
252 252 252 251 249 249 248 247 248 249 251 252 252 250 250 250 251 247 246 248 250 254 254 254 253 254 255 256 257 258 259 261 262 263 266 267 268 269 270 271 273 275 276
252 253 252 251 250 250 248 248 248 249 251 252 250 250 249 250 250 248 248 248 250 253 254 255 255 256 256 257 258 259 260 260 262 264 266 267 268 271 272 273 274 274 275
255 253 253 253 251 251 250 248 247 250 252 252 251 250 249 250 250 249 249 249 250 253 254 254 256 257 257 257 259 260 261 263 264 265 267 267 268 270 272 274 275 275 274
258 255 254 253 252 251 250 249 249 249 250 252 251 250 251 250 250 249 249 249 251 253 255 255 255 255 255 257 259 259 261 263 265 267 268 269 269 270 271 274 274 274 275
261 258 256 255 253 253 251 249 248 248 249 251 251 251 250 250 250 249 248 248 250 254 256 256 255 256 256 257 259 261 262 264 266 268 270 270 270 271 273 274 275 277 278
264 260 257 255 254 251 249 245 246 248 249 249 250 251 250 250 250 249 249 250 252 253 256 255 255 255 257 259 260 261 262 266 268 268 269 270 271 272 274 276 277 278 280
270 266 260 258 257 253 249 247 250 252 252 251 249 250 250 251 252 251 252 251 253 255 255 256 256 257 260 261 261 261 265 267 268 269 271 273 274 273 276 278 279 281 282
271 269 265 261 260 258 254 250 249 251 250 248 248 249 248 248 249 250 249 252 255 255 255 255 258 258 259 259 261 263 267 269 272 272 273 274 275 276 278 280 281 283 283
276 274 267 263 259 255 252 250 250 248 246 247 246 245 244 245 245 248 251 254 255 256 256 256 259 260 261 262 265 267 269 271 274 275 276 276 277 278 280 282 284 285 285
282 278 265 258 252 247 247 247 249 248 247 246 245 242 242 243 246 249 250 254 255 257 255 257 259 262 263 265 269 272 273 275 278 279 278 278 280 281 283 283 284 285 285
282 275 265 257 253 249 248 251 248 246 242 239 241 243 245 248 251 253 254 256 258 259 258 259 262 264 267 269 273 275 277 278 280 280 281 282 282 284 285 285 284 285 286
282 272 263 261 256 251 252 252 244 242 241 240 244 246 248 252 255 255 256 257 258 261 260 260 263 266 269 271 275 278 279 281 283 285 285 285 285 287 288 288 287 287 288
277 273 265 258 257 255 253 252 247 246 244 245 247 249 250 253 255 255 255 256 258 260 259 261 266 271 273 276 280 283 284 286 287 289 289 290 291 293 292 291 291 292 291
277 269 263 261 260 258 256 253 250 248 248 249 251 254 255 257 258 259 260 260 259 261 263 266 270 275 280 283 286 289 290 291 292 291 292 293 294 294 295 295 295 296 296
279 270 263 263 262 260 256 255 251 250 250 253 253 253 255 256 259 262 262 264 265 265 267 272 277 281 284 286 288 290 293 294 294 293 294 296 296 297 297 297 297 297 297
277 270 266 263 263 261 258 255 253 252 253 253 254 255 256 255 259 262 263 265 267 267 271 275 279 282 285 287 290 292 294 295 297 297 298 298 297 297 297 297 297 298 296
277 273 269 265 263 262 259 256 253 253 254 254 256 258 257 258 261 261 262 264 267 270 273 276 280 283 287 290 292 293 294 296 298 300 300 300 299 298 298 297 297 298 297
275 272 270 267 264 264 263 261 259 258 258 257 257 259 259 261 263 263 263 263 268 272 275 278 282 285 288 291 292 293 295 297 298 300 301 302 301 300 298 297 298 298 297
272 271 268 267 268 267 266 265 262 260 259 258 258 259 260 262 263 264 265 266 270 272 275 279 283 286 288 289 290 293 296 297 298 299 301 301 302 301 300 298 298 299 298
270 268 267 267 268 270 270 268 265 261 259 259 259 259 262 264 264 265 267 270 272 275 276 279 283 286 288 290 291 293 294 296 297 299 300 301 301 301 301 299 299 300 300
269 267 265 264 266 268 269 270 267 261 259 259 260 261 263 266 266 266 268 271 274 276 279 281 284 286 287 289 291 292 294 295 297 299 300 301 301 301 301 300 300 300 300
267 265 263 263 264 266 268 268 269 266 264 263 263 263 265 267 268 268 269 271 273 276 279 282 284 286 288 290 291 292 293 294 297 299 300 301 301 301 301 300 300 299 300
Height
5714 5715 5717 5719 5721 5723 5726 5728 5731 5733 5736 5738 5740 5743 5745 5748 5750 5753 5756 5758 5761 5762 5765 5768 5770 5772 5774 5776 5777 5778 5779 5780 5781 5781 5781 5782 5781 5781 5781 5780 5779 5779 5777
5706 5708 5709 5711 5712 5714 5716 5718 5721 5723 5725 5728 5730 5732 5735 5737 5740 5743 5746 5748 5750 5752 5755 5757 5760 5762 5764 5765 5767 5769 5770 5771 5771 5772 5772 5772 5773 5772 5772 5771 5771 5769 5768
5699 5700 5701 5702 5704 5705 5707 5709 5711 5713 5716 5718 5720 5722 5724 5727 5730 5733 5736 5738 5741 5743 5745 5747 5749 5751 5754 5756 5757 5759 5760 5761 5762 5762 5763 5763 5763 5763 5763 5762 5761 5759 5758
5691 5692 5693 5694 5696 5697 5699 5700 5703 5705 5707 5709 5710 5712 5714 5717 5720 5722 5725 5728 5731 5733 5735 5737 5739 5742 5744 5745 5747 5749 5750 5751 5752 5752 5752 5753 5752 5753 5753 5753 5751 5749 5748
5684 5685 5686 5687 5688 5690 5691 5693 5694 5696 5698 5700 5701 5703 5705 5707 5709 5712 5715 5718 5721 5723 5725 5727 5730 5732 5734 5736 5737 5739 5740 5741 5742 5743 5743 5742 5742 5741 5741 5742 5741 5740 5738
5677 5678 5679 5680 5681 5682 5684 5685 5687 5688 5690 5691 5692 5694 5696 5698 5700 5703 5705 5709 5712 5714 5716 5718 5720 5722 5724 5726 5728 5729 5730 5731 5732 5732 5732 5732 5732 5731 5730 5729 5730 5729 5728
5671 5672 5672 5673 5674 5675 5676 5677 5679 5681 5682 5683 5684 5686 5688 5690 5692 5694 5697 5700 5703 5705 5707 5709 5711 5713 5715 5717 5718 5719 5720 5721 5722 5722 5722 5722 5721 5721 5720 5719 5718 5718 5717
5666 5665 5665 5666 5666 5667 5668 5670 5671 5673 5674 5676 5677 5679 5681 5682 5685 5687 5689 5692 5695 5697 5699 5700 5702 5704 5706 5707 5708 5710 5711 5711 5711 5712 5712 5712 5711 5710 5709 5708 5707 5706 5706
5661 5660 5659 5659 5660 5660 5661 5662 5664 5666 5667 5669 5670 5672 5673 5675 5677 5679 5682 5684 5686 5688 5690 5692 5694 5695 5697 5698 5699 5700 5701 5702 5702 5702 5702 5701 5701 5700 5699 5697 5696 5694 5693
5656 5655 5654 5654 5653 5654 5654 5655 5657 5659 5660 5662 5663 5665 5667 5669 5670 5672 5675 5677 5679 5681 5682 5684 5685 5687 5689 5690 5691 5692 5692 5693 5693 5692 5692 5691 5691 5690 5688 5686 5685 5682 5681
5651 5650 5649 5648 5648 5648 5648 5650 5651 5653 5654 5656 5657 5659 5661 5663 5664 5666 5668 5670 5672 5674 5675 5677 5678 5679 5680 5681 5682 5683 5683 5683 5683 5683 5682 5682 5681 5680 5678 5676 5674 5672 5669
5647 5645 5644 5644 5643 5643 5644 5645 5646 5648 5649 5650 5652 5653 5655 5657 5659 5660 5662 5664 5665 5667 5669 5670 5671 5672 5673 5674 5674 5675 5674 5674 5674 5674 5673 5672 5671 5669 5668 5666 5663 5661 5658
5643 5641 5641 5640 5640 5639 5640 5641 5642 5643 5644 5646 5647 5649 5651 5652 5654 5655 5657 5658 5660 5661 5662 5663 5665 5665 5666 5666 5667 5667 5666 5666 5665 5664 5663 5662 5661 5659 5657 5655 5652 5649 5646
5640 5638 5637 5637 5636 5636 5637 5637 5638 5639 5640 5642 5643 5645 5647 5648 5649 5650 5652 5653 5654 5655 5656 5657 5658 5659 5659 5659 5659 5659 5658 5657 5656 5655 5653 5652 5650 5648 5646 5643 5641 5638 5634
5636 5635 5634 5634 5633 5633 5634 5634 5634 5635 5636 5638 5640 5641 5643 5644 5645 5646 5647 5648 5648 5649 5650 5650 5651 5652 5652 5652 5652 5651 5650 5648 5646 5645 5643 5641 5639 5637 5634 5632 5629 5626 5622
5633 5632 5632 5631 5631 5631 5631 5631 5631 5632 5633 5635 5636 5637 5638 5639 5640 5641 5642 5642 5643 5644 5644 5645 5645 5645 5645 5645 5644 5643 5641 5639 5638 5635 5633 5631 5629 5626 5623 5620 5617 5614 5611
5630 5629 5628 5628 5628 5628 5628 5628 5628 5629 5630 5631 5632 5633 5634 5635 5635 5636 5637 5637 5638 5638 5638 5638 5639 5639 5638 5637 5636 5635 5633 5631 5629 5627 5624 5622 5619 5616 5613 5609 5606 5602 5598
5627 5626 5625 5625 5624 5624 5624 5624 5625 5625 5626 5627 5628 5629 5629 5630 5631 5631 5632 5632 5632 5633 5633 5632 5632 5632 5631 5630 5629 5627 5625 5622 5620 5618 5616 5613 5610 5606 5603 5599 5596 5592 5588
5623 5622 5621 5621 5621 5620 5620 5620 5620 5621 5622 5622 5623 5624 5624 5625 5625 5626 5626 5626 5626 5627 5626 5626 5626 5625 5624 5623 5621 5619 5616 5614 5611 5609 5606 5603 5600 5597 5593 5590 5586 5582 5578
5618 5618 5617 5617 5616 5616 5616 5616 5616 5616 5617 5617 5618 5618 5619 5620 5620 5620 5621 5621 5621 5620 5620 5620 5619 5618 5617 5615 5613 5611 5608 5606 5603 5600 5597 5594 5590 5587 5583 5579 5576 5572 5568
5614 5613 5612 5612 5611 5611 5611 5611 5611 5611 5611 5612 5612 5613 5613 5614 5614 5614 5614 5614 5614 5614 5614 5613 5612 5611 5609 5607 5605 5602 5600 5597 5594 5591 5588 5584 5581 5577 5573 5569 5566 5562 5558
5609 5608 5607 5606 5606 5606 5605 5605 5605 5605 5605 5606 5606 5606 5607 5607 5607 5607 5607 5608 5607 5607 5606 5606 5605 5603 5601 5599 5596 5594 5591 5588 5585 5582 5579 5575 5571 5567 5563 5559 5556 5552 5548
5603 5602 5601 5601 5600 5599 5599 5598 5598 5598 5599 5599 5599 5599 5600 5600 5600 5600 5600 5600 5600 5600 5599 5598 5597 5595 5593 5590 5588 5585 5582 5579 5577 5573 5570 5566 5562 5558 5553 5550 5546 5542 5538
5596 5595 5595 5594 5594 5593 5592 5591 5591 5591 5591 5592 5592 5592 5593 5593 5593 5593 5593 5593 5592 5592 5591 5590 5588 5586 5584 5582 5579 5577 5574 5571 5567 5564 5560 5556 5552 5548 5544 5540 5536 5531 5528
5588 5587 5587 5587 5586 5586 5585 5584 5584 5583 5583 5584 5584 5585 5585 5585 5585 5585 5585 5585 5584 5583 5583 5581 5579 5577 5575 5573 5570 5567 5564 5561 5558 5554 5550 5546 5542 5538 5534 5530 5526 5522 5518
5579 5579 5579 5579 5578 5578 5577 5577 5576 5576 5576 5576 5576 5576 5576 5576 5576 5576 5576 5575 5575 5574 5573 5571 5570 5568 5566 5563 5560 5557 5554 5551 5548 5544 5540 5536 5532 5528 5524 5520 5516 5512 5509